User: anonymous   Login
Location: Newark
(44.0167°N, 1.3500°E)
Time: 21:17:00
(UTC+00:00)
Language:

ITAMSAT 1 - Orbit

View from above orbital plane
View from above orbital plane
View from above satellite
View from above satellite

Ground track
Ground track

The orbit data is extracted from the following two-line orbital elements,

1 22826U 93061D   19345.98563548 -.00000001  00000-0  17558-4 0  9991
2 22826  98.9103 338.7350 0008732 187.8294 172.2753 14.30407802367350
Epoch (UTC): 11 December 2019 23:39:18
Eccentricity: 0.0008732
inclination: 98.9103°
perigee height: 784 km
apogee height: 796 km
right ascension of ascending node: 338.7350°
argument of perigee: 187.8294°
revolutions per day: 14.30407802
mean anomaly at epoch: 172.2753°
orbit number at epoch: 36735

The dashed part of the orbit path shows where the satellite is in the earth's shadow,  

DLR